owner,sensor,date,latitude,longitude,vertical_datum,sea_water_practical_salinity,qcFlag 
DISL,ioos:station:DISL:MHPA:1,2017-03-01T00:00:00Z,30.6671,-87.9365,1.144,0.2,1111122 
DISL,ioos:station:DISL:MHPA:1,2017-03-01T00:30:00Z,30.6671,-87.9365,1.113,0.2,1111122 
DISL,ioos:station:DISL:MHPA:1,2017-03-01T01:00:00Z,30.6671,-87.9365,1.094,0.19,1111122 
DISL,ioos:station:DISL:MHPA:1,2017-03-01T01:30:00Z,30.6671,-87.9365,1.081,0.2,1111122 
DISL,ioos:station:DISL:MHPA:1,2017-03-01T02:00:00Z,30.6671,-87.9365,1.049,0.2,1111122 
DISL,ioos:station:DISL:MHPA:1,2017-03-01T02:30:00Z,30.6671,-87.9365,1.039,0.2,1111122 
DISL,ioos:station:DISL:MHPA:1,2017-03-01T03:00:00Z,30.6671,-87.9365,1.056,0.2,1111122 
DISL,ioos:station:DISL:MHPA:1,2017-03-01T03:30:00Z,30.6671,-87.9365,1.083,0.2,1111122 
DISL,ioos:station:DISL:MHPA:1,2017-03-01T04:00:00Z,30.6671,-87.9365,1.124,0.2,1111122 
DISL,ioos:station:DISL:MHPA:1,2017-03-01T04:30:00Z,30.6671,-87.9365,1.166,0.2,1111122 
DISL,ioos:station:DISL:MHPA:1,2017-03-01T05:00:00Z,30.6671,-87.9365,1.203,0.2,1111122 
DISL,ioos:station:DISL:MHPA:1,2017-03-01T05:30:00Z,30.6671,-87.9365,1.23,0.2,1111122 
DISL,ioos:station:DISL:MHPA:1,2017-03-01T06:00:00Z,30.6671,-87.9365,1.263,0.2,1111122 
DISL,ioos:station:DISL:MHPA:1,2017-03-01T06:30:00Z,30.6671,-87.9365,1.276,0.2,1111122 
DISL,ioos:station:DISL:MHPA:1,2017-03-01T07:00:00Z,30.6671,-87.9365,1.29,0.21,1111122 
DISL,ioos:station:DISL:MHPA:1,2017-03-01T07:30:00Z,30.6671,-87.9365,1.321,0.21,1111122 
DISL,ioos:station:DISL:MHPA:1,2017-03-01T08:00:00Z,30.6671,-87.9365,1.334,0.21,1111122 
DISL,ioos:station:DISL:MHPA:1,2017-03-01T08:30:00Z,30.6671,-87.9365,1.361,0.21,1111122 
DISL,ioos:station:DISL:MHPA:1,2017-03-01T09:00:00Z,30.6671,-87.9365,1.348,0.2,1111122 
DISL,ioos:station:DISL:MHPA:1,2017-03-01T09:30:00Z,30.6671,-87.9365,1.348,0.2,1111122 
DISL,ioos:station:DISL:MHPA:1,2017-03-01T10:00:00Z,30.6671,-87.9365,1.36,0.2,1111122 
DISL,ioos:station:DISL:MHPA:1,2017-03-01T10:30:00Z,30.6671,-87.9365,1.358,0.2,1111122 
DISL,ioos:station:DISL:MHPA:1,2017-03-01T11:00:00Z,30.6671,-87.9365,1.343,0.2,1111122 
DISL,ioos:station:DISL:MHPA:1,2017-03-01T11:30:00Z,30.6671,-87.9365,1.334,0.2,1111122 
DISL,ioos:station:DISL:MHPA:1,2017-03-01T12:00:00Z,30.6671,-87.9365,1.31,0.2,1111122 
DISL,ioos:station:DISL:MHPA:1,2017-03-01T12:30:00Z,30.6671,-87.9365,1.27,0.2,1111122 
DISL,ioos:station:DISL:MHPA:1,2017-03-01T13:00:00Z,30.6671,-87.9365,1.231,0.2,1111122 
DISL,ioos:station:DISL:MHPA:1,2017-03-01T13:30:00Z,30.6671,-87.9365,1.201,0.2,1111122 
DISL,ioos:station:DISL:MHPA:1,2017-03-01T14:00:00Z,30.6671,-87.9365,1.2,0.2,1111122 
DISL,ioos:station:DISL:MHPA:1,2017-03-01T14:30:00Z,30.6671,-87.9365,1.19,0.2,1111122 
DISL,ioos:station:DISL:MHPA:1,2017-03-01T15:00:00Z,30.6671,-87.9365,1.167,0.2,1111122 
DISL,ioos:station:DISL:MHPA:1,2017-03-01T15:30:00Z,30.6671,-87.9365,1.175,0.2,1111122 
DISL,ioos:station:DISL:MHPA:1,2017-03-01T16:00:00Z,30.6671,-87.9365,1.18,0.2,1111122 
DISL,ioos:station:DISL:MHPA:1,2017-03-01T16:30:00Z,30.6671,-87.9365,1.173,0.2,1111122 
DISL,ioos:station:DISL:MHPA:1,2017-03-01T17:00:00Z,30.6671,-87.9365,1.166,0.2,1111122 
DISL,ioos:station:DISL:MHPA:1,2017-03-01T17:30:00Z,30.6671,-87.9365,1.162,0.2,1111122 
DISL,ioos:station:DISL:MHPA:1,2017-03-01T21:30:00Z,30.6671,-87.9365,1.202,0.19,1111122 
DISL,ioos:station:DISL:MHPA:1,2017-03-01T22:00:00Z,30.6671,-87.9365,1.229,0.2,1111122 
DISL,ioos:station:DISL:MHPA:1,2017-03-01T22:30:00Z,30.6671,-87.9365,1.217,0.2,1111122 
DISL,ioos:station:DISL:MHPA:1,2017-03-01T23:00:00Z,30.6671,-87.9365,1.206,0.19,1111122 
DISL,ioos:station:DISL:MHPA:1,2017-03-01T23:30:00Z,30.6671,-87.9365,1.204,0.19,1111122 
DISL,ioos:station:DISL:MHPA:1,2017-03-02T00:00:00Z,30.6671,-87.9365,1.184,0.2,1111122 
DISL,ioos:station:DISL:MHPA:1,2017-03-02T00:30:00Z,30.6671,-87.9365,1.173,0.2,1111122 
DISL,ioos:station:DISL:MHPA:1,2017-03-02T01:00:00Z,30.6671,-87.9365,1.161,0.21,1111122 
DISL,ioos:station:DISL:MHPA:1,2017-03-02T01:30:00Z,30.6671,-87.9365,1.148,0.2,1111122 
DISL,ioos:station:DISL:MHPA:1,2017-03-02T02:00:00Z,30.6671,-87.9365,1.134,0.2,1111122 
DISL,ioos:station:DISL:MHPA:1,2017-03-02T02:30:00Z,30.6671,-87.9365,1.122,0.2,1111122 
DISL,ioos:station:DISL:MHPA:1,2017-03-02T03:00:00Z,30.6671,-87.9365,1.086,0.2,1111122 
DISL,ioos:station:DISL:MHPA:1,2017-03-02T03:30:00Z,30.6671,-87.9365,1.05,0.2,1111122 
DISL,ioos:station:DISL:MHPA:1,2017-03-02T04:00:00Z,30.6671,-87.9365,1.031,0.2,1111122 
DISL,ioos:station:DISL:MHPA:1,2017-03-02T04:30:00Z,30.6671,-87.9365,1.01,0.2,1111122 
DISL,ioos:station:DISL:MHPA:1,2017-03-02T05:00:00Z,30.6671,-87.9365,1.004,0.2,1111122 
DISL,ioos:station:DISL:MHPA:1,2017-03-02T05:30:00Z,30.6671,-87.9365,0.97,0.2,1111122 
DISL,ioos:station:DISL:MHPA:1,2017-03-02T06:00:00Z,30.6671,-87.9365,0.965,0.19,1111122 
DISL,ioos:station:DISL:MHPA:1,2017-03-02T06:30:00Z,30.6671,-87.9365,0.946,0.19,1111122 
DISL,ioos:station:DISL:MHPA:1,2017-03-02T07:00:00Z,30.6671,-87.9365,0.922,0.19,1111122 
DISL,ioos:station:DISL:MHPA:1,2017-03-02T07:30:00Z,30.6671,-87.9365,0.948,0.19,1111122 
DISL,ioos:station:DISL:MHPA:1,2017-03-02T08:00:00Z,30.6671,-87.9365,0.907,0.19,1111122 
DISL,ioos:station:DISL:MHPA:1,2017-03-02T08:30:00Z,30.6671,-87.9365,0.855,0.18,1111122 
DISL,ioos:station:DISL:MHPA:1,2017-03-02T09:00:00Z,30.6671,-87.9365,0.804,0.18,1111122 
DISL,ioos:station:DISL:MHPA:1,2017-03-02T09:30:00Z,30.6671,-87.9365,0.754,0.19,1111122 
DISL,ioos:station:DISL:MHPA:1,2017-03-02T10:00:00Z,30.6671,-87.9365,0.709,0.19,1111122 
DISL,ioos:station:DISL:MHPA:1,2017-03-02T10:30:00Z,30.6671,-87.9365,0.673,0.19,1111122 
DISL,ioos:station:DISL:MHPA:1,2017-03-02T11:00:00Z,30.6671,-87.9365,0.643,0.19,1111122 
DISL,ioos:station:DISL:MHPA:1,2017-03-02T11:30:00Z,30.6671,-87.9365,0.616,0.19,1111122 
DISL,ioos:station:DISL:MHPA:1,2017-03-02T12:00:00Z,30.6671,-87.9365,0.596,0.19,1111122 
DISL,ioos:station:DISL:MHPA:1,2017-03-02T12:30:00Z,30.6671,-87.9365,0.58,0.19,1111122 
DISL,ioos:station:DISL:MHPA:1,2017-03-02T13:00:00Z,30.6671,-87.9365,0.567,0.19,1111122 
DISL,ioos:station:DISL:MHPA:1,2017-03-02T13:30:00Z,30.6671,-87.9365,0.555,0.19,1111122 
DISL,ioos:station:DISL:MHPA:1,2017-03-02T14:00:00Z,30.6671,-87.9365,0.543,0.19,1111122 
DISL,ioos:station:DISL:MHPA:1,2017-03-02T14:30:00Z,30.6671,-87.9365,0.531,0.19,1111122 
DISL,ioos:station:DISL:MHPA:1,2017-03-02T15:00:00Z,30.6671,-87.9365,0.519,0.19,1111122 
DISL,ioos:station:DISL:MHPA:1,2017-03-02T15:30:00Z,30.6671,-87.9365,0.511,0.19,1111122 
DISL,ioos:station:DISL:MHPA:1,2017-03-02T16:00:00Z,30.6671,-87.9365,0.505,0.19,1111122 
DISL,ioos:station:DISL:MHPA:1,2017-03-02T16:30:00Z,30.6671,-87.9365,0.496,0.19,1111122 
DISL,ioos:station:DISL:MHPA:1,2017-03-02T17:00:00Z,30.6671,-87.9365,0.491,0.19,1111122 
DISL,ioos:station:DISL:MHPA:1,2017-03-02T17:30:00Z,30.6671,-87.9365,0.489,0.19,1111122 
DISL,ioos:station:DISL:MHPA:1,2017-03-02T18:00:00Z,30.6671,-87.9365,0.492,0.19,1111122 
DISL,ioos:station:DISL:MHPA:1,2017-03-02T18:30:00Z,30.6671,-87.9365,0.505,0.19,1111122 
DISL,ioos:station:DISL:MHPA:1,2017-03-02T19:00:00Z,30.6671,-87.9365,0.543,0.19,1111122 
DISL,ioos:station:DISL:MHPA:1,2017-03-02T19:30:00Z,30.6671,-87.9365,0.603,0.19,1111122 
DISL,ioos:station:DISL:MHPA:1,2017-03-02T20:00:00Z,30.6671,-87.9365,0.675,0.19,1111122 
DISL,ioos:station:DISL:MHPA:1,2017-03-02T20:30:00Z,30.6671,-87.9365,0.74,0.19,1111122 
DISL,ioos:station:DISL:MHPA:1,2017-03-02T21:00:00Z,30.6671,-87.9365,0.796,0.2,1111122 
DISL,ioos:station:DISL:MHPA:1,2017-03-02T21:30:00Z,30.6671,-87.9365,0.831,0.2,1111122 
DISL,ioos:station:DISL:MHPA:1,2017-03-02T22:00:00Z,30.6671,-87.9365,0.869,0.2,1111122 
DISL,ioos:station:DISL:MHPA:1,2017-03-02T22:30:00Z,30.6671,-87.9365,0.912,0.2,1111122 
DISL,ioos:station:DISL:MHPA:1,2017-03-02T23:00:00Z,30.6671,-87.9365,0.911,0.19,1111122 
DISL,ioos:station:DISL:MHPA:1,2017-03-02T23:30:00Z,30.6671,-87.9365,0.904,0.19,1111122 
DISL,ioos:station:DISL:MHPA:1,2017-03-03T00:00:00Z,30.6671,-87.9365,0.913,0.19,1111122 
DISL,ioos:station:DISL:MHPA:1,2017-03-03T00:30:00Z,30.6671,-87.9365,0.907,0.19,1111122 
DISL,ioos:station:DISL:MHPA:1,2017-03-03T01:00:00Z,30.6671,-87.9365,0.903,0.19,1111122 
DISL,ioos:station:DISL:MHPA:1,2017-03-03T01:30:00Z,30.6671,-87.9365,0.894,0.19,1111122 
DISL,ioos:station:DISL:MHPA:1,2017-03-03T02:00:00Z,30.6671,-87.9365,0.87,0.18,1111122 
DISL,ioos:station:DISL:MHPA:1,2017-03-03T02:30:00Z,30.6671,-87.9365,0.849,0.18,1111122 
DISL,ioos:station:DISL:MHPA:1,2017-03-03T03:00:00Z,30.6671,-87.9365,0.828,0.18,1111122 
DISL,ioos:station:DISL:MHPA:1,2017-03-03T03:30:00Z,30.6671,-87.9365,0.805,0.18,1111122 
DISL,ioos:station:DISL:MHPA:1,2017-03-03T04:00:00Z,30.6671,-87.9365,0.783,0.18,1111122 
DISL,ioos:station:DISL:MHPA:1,2017-03-03T04:30:00Z,30.6671,-87.9365,0.757,0.18,1111122 
DISL,ioos:station:DISL:MHPA:1,2017-03-03T05:00:00Z,30.6671,-87.9365,0.728,0.18,1111122 
DISL,ioos:station:DISL:MHPA:1,2017-03-03T05:30:00Z,30.6671,-87.9365,0.701,0.18,1111122 
DISL,ioos:station:DISL:MHPA:1,2017-03-03T06:00:00Z,30.6671,-87.9365,0.68,0.18,1111122 
DISL,ioos:station:DISL:MHPA:1,2017-03-03T06:30:00Z,30.6671,-87.9365,0.666,0.18,1111122 
DISL,ioos:station:DISL:MHPA:1,2017-03-03T07:00:00Z,30.6671,-87.9365,0.66,0.19,1111122 
DISL,ioos:station:DISL:MHPA:1,2017-03-03T07:30:00Z,30.6671,-87.9365,0.658,0.19,1111122 
DISL,ioos:station:DISL:MHPA:1,2017-03-03T08:00:00Z,30.6671,-87.9365,0.655,0.19,1111122 
DISL,ioos:station:DISL:MHPA:1,2017-03-03T08:30:00Z,30.6671,-87.9365,0.65,0.19,1111122 
DISL,ioos:station:DISL:MHPA:1,2017-03-03T09:00:00Z,30.6671,-87.9365,0.642,0.19,1111122 
DISL,ioos:station:DISL:MHPA:1,2017-03-03T09:30:00Z,30.6671,-87.9365,0.63,0.19,1111122 
DISL,ioos:station:DISL:MHPA:1,2017-03-03T10:00:00Z,30.6671,-87.9365,0.619,0.19,1111122 
DISL,ioos:station:DISL:MHPA:1,2017-03-03T10:30:00Z,30.6671,-87.9365,0.61,0.19,1111122 
DISL,ioos:station:DISL:MHPA:1,2017-03-03T11:00:00Z,30.6671,-87.9365,0.605,0.19,1111122 
DISL,ioos:station:DISL:MHPA:1,2017-03-03T11:30:00Z,30.6671,-87.9365,0.608,0.19,1111122 
DISL,ioos:station:DISL:MHPA:1,2017-03-03T12:00:00Z,30.6671,-87.9365,0.622,0.19,1111122 
DISL,ioos:station:DISL:MHPA:1,2017-03-03T12:30:00Z,30.6671,-87.9365,0.646,0.19,1111122 
DISL,ioos:station:DISL:MHPA:1,2017-03-03T13:00:00Z,30.6671,-87.9365,0.677,0.19,1111122 
DISL,ioos:station:DISL:MHPA:1,2017-03-03T13:30:00Z,30.6671,-87.9365,0.703,0.19,1111122 
DISL,ioos:station:DISL:MHPA:1,2017-03-03T14:00:00Z,30.6671,-87.9365,0.723,0.19,1111122 
DISL,ioos:station:DISL:MHPA:1,2017-03-03T14:30:00Z,30.6671,-87.9365,0.73,0.19,1111122 
DISL,ioos:station:DISL:MHPA:1,2017-03-03T15:00:00Z,30.6671,-87.9365,0.729,0.18,1111122 
DISL,ioos:station:DISL:MHPA:1,2017-03-03T15:30:00Z,30.6671,-87.9365,0.734,0.19,1111122 
DISL,ioos:station:DISL:MHPA:1,2017-03-03T16:00:00Z,30.6671,-87.9365,0.744,0.19,1111122 
DISL,ioos:station:DISL:MHPA:1,2017-03-03T16:30:00Z,30.6671,-87.9365,0.766,0.19,1111122 
DISL,ioos:station:DISL:MHPA:1,2017-03-03T17:00:00Z,30.6671,-87.9365,0.787,0.19,1111122 
DISL,ioos:station:DISL:MHPA:1,2017-03-03T17:30:00Z,30.6671,-87.9365,0.794,0.19,1111122 
DISL,ioos:station:DISL:MHPA:1,2017-03-03T18:00:00Z,30.6671,-87.9365,0.804,0.19,1111122 
DISL,ioos:station:DISL:MHPA:1,2017-03-03T18:30:00Z,30.6671,-87.9365,0.84,0.19,1111122 
DISL,ioos:station:DISL:MHPA:1,2017-03-03T19:00:00Z,30.6671,-87.9365,0.885,0.19,1111122 
DISL,ioos:station:DISL:MHPA:1,2017-03-03T19:30:00Z,30.6671,-87.9365,0.901,0.19,1111122 
DISL,ioos:station:DISL:MHPA:1,2017-03-03T20:00:00Z,30.6671,-87.9365,0.936,0.19,1111122 
DISL,ioos:station:DISL:MHPA:1,2017-03-03T20:30:00Z,30.6671,-87.9365,0.968,0.19,1111122 
DISL,ioos:station:DISL:MHPA:1,2017-03-03T21:00:00Z,30.6671,-87.9365,0.982,0.19,1111122 
DISL,ioos:station:DISL:MHPA:1,2017-03-03T21:30:00Z,30.6671,-87.9365,1.001,0.19,1111122 
DISL,ioos:station:DISL:MHPA:1,2017-03-03T22:00:00Z,30.6671,-87.9365,1.01,0.19,1111122 
DISL,ioos:station:DISL:MHPA:1,2017-03-03T22:30:00Z,30.6671,-87.9365,1.004,0.19,1111122 
DISL,ioos:station:DISL:MHPA:1,2017-03-03T23:00:00Z,30.6671,-87.9365,0.994,0.18,1111122 
DISL,ioos:station:DISL:MHPA:1,2017-03-03T23:30:00Z,30.6671,-87.9365,0.977,0.18,1111122 
DISL,ioos:station:DISL:MHPA:1,2017-03-04T00:00:00Z,30.6671,-87.9365,0.958,0.18,1111122 
DISL,ioos:station:DISL:MHPA:1,2017-03-04T00:30:00Z,30.6671,-87.9365,0.95,0.17,1111122 
DISL,ioos:station:DISL:MHPA:1,2017-03-04T01:00:00Z,30.6671,-87.9365,0.94,0.18,1111122 
DISL,ioos:station:DISL:MHPA:1,2017-03-04T01:30:00Z,30.6671,-87.9365,0.919,0.18,1111122 
DISL,ioos:station:DISL:MHPA:1,2017-03-04T02:00:00Z,30.6671,-87.9365,0.898,0.18,1111122 
DISL,ioos:station:DISL:MHPA:1,2017-03-04T02:30:00Z,30.6671,-87.9365,0.878,0.18,1111122 
DISL,ioos:station:DISL:MHPA:1,2017-03-04T03:00:00Z,30.6671,-87.9365,0.846,0.18,1111122 
DISL,ioos:station:DISL:MHPA:1,2017-03-04T03:30:00Z,30.6671,-87.9365,0.812,0.18,1111122 
DISL,ioos:station:DISL:MHPA:1,2017-03-04T04:00:00Z,30.6671,-87.9365,0.784,0.18,1111122 
DISL,ioos:station:DISL:MHPA:1,2017-03-04T04:30:00Z,30.6671,-87.9365,0.762,0.18,1111122 
DISL,ioos:station:DISL:MHPA:1,2017-03-04T05:00:00Z,30.6671,-87.9365,0.742,0.17,1111122 
DISL,ioos:station:DISL:MHPA:1,2017-03-04T05:30:00Z,30.6671,-87.9365,0.724,0.15,1111122 
DISL,ioos:station:DISL:MHPA:1,2017-03-04T06:00:00Z,30.6671,-87.9365,0.707,0.15,1111122 
DISL,ioos:station:DISL:MHPA:1,2017-03-04T06:30:00Z,30.6671,-87.9365,0.694,0.15,1111122 
DISL,ioos:station:DISL:MHPA:1,2017-03-04T07:00:00Z,30.6671,-87.9365,0.683,0.16,1111122 
DISL,ioos:station:DISL:MHPA:1,2017-03-04T07:30:00Z,30.6671,-87.9365,0.671,0.16,1111122 
DISL,ioos:station:DISL:MHPA:1,2017-03-04T08:00:00Z,30.6671,-87.9365,0.659,0.16,1111122 
DISL,ioos:station:DISL:MHPA:1,2017-03-04T08:30:00Z,30.6671,-87.9365,0.648,0.16,1111122 
DISL,ioos:station:DISL:MHPA:1,2017-03-04T09:00:00Z,30.6671,-87.9365,0.639,0.16,1111122 
DISL,ioos:station:DISL:MHPA:1,2017-03-04T09:30:00Z,30.6671,-87.9365,0.634,0.16,1111122 
DISL,ioos:station:DISL:MHPA:1,2017-03-04T10:00:00Z,30.6671,-87.9365,0.628,0.16,1111122 
DISL,ioos:station:DISL:MHPA:1,2017-03-04T10:30:00Z,30.6671,-87.9365,0.622,0.17,1111122 
DISL,ioos:station:DISL:MHPA:1,2017-03-04T11:00:00Z,30.6671,-87.9365,0.621,0.17,1111122 
DISL,ioos:station:DISL:MHPA:1,2017-03-04T11:30:00Z,30.6671,-87.9365,0.622,0.18,1111122 
DISL,ioos:station:DISL:MHPA:1,2017-03-04T12:00:00Z,30.6671,-87.9365,0.623,0.18,1111122 
DISL,ioos:station:DISL:MHPA:1,2017-03-04T12:30:00Z,30.6671,-87.9365,0.627,0.18,1111122 
DISL,ioos:station:DISL:MHPA:1,2017-03-04T13:00:00Z,30.6671,-87.9365,0.64,0.18,1111122 
DISL,ioos:station:DISL:MHPA:1,2017-03-04T13:30:00Z,30.6671,-87.9365,0.669,0.18,1111122 
DISL,ioos:station:DISL:MHPA:1,2017-03-04T14:00:00Z,30.6671,-87.9365,0.69,0.18,1111122 
DISL,ioos:station:DISL:MHPA:1,2017-03-04T14:30:00Z,30.6671,-87.9365,0.717,0.18,1111122 
DISL,ioos:station:DISL:MHPA:1,2017-03-04T15:00:00Z,30.6671,-87.9365,0.757,0.18,1111122 
DISL,ioos:station:DISL:MHPA:1,2017-03-04T15:30:00Z,30.6671,-87.9365,0.832,0.18,1111122 
DISL,ioos:station:DISL:MHPA:1,2017-03-04T16:00:00Z,30.6671,-87.9365,0.897,0.18,1111122 
DISL,ioos:station:DISL:MHPA:1,2017-03-04T16:30:00Z,30.6671,-87.9365,0.911,0.17,1111122 
DISL,ioos:station:DISL:MHPA:1,2017-03-04T17:00:00Z,30.6671,-87.9365,0.932,0.17,1111122 
DISL,ioos:station:DISL:MHPA:1,2017-03-04T17:30:00Z,30.6671,-87.9365,0.955,0.17,1111122 
DISL,ioos:station:DISL:MHPA:1,2017-03-04T18:00:00Z,30.6671,-87.9365,0.989,0.18,1111122 
DISL,ioos:station:DISL:MHPA:1,2017-03-04T18:30:00Z,30.6671,-87.9365,1.014,0.18,1111122 
DISL,ioos:station:DISL:MHPA:1,2017-03-04T19:00:00Z,30.6671,-87.9365,1.038,0.18,1111122 
DISL,ioos:station:DISL:MHPA:1,2017-03-04T19:30:00Z,30.6671,-87.9365,1.054,0.18,1111122 
DISL,ioos:station:DISL:MHPA:1,2017-03-04T20:00:00Z,30.6671,-87.9365,1.085,0.18,1111122 
DISL,ioos:station:DISL:MHPA:1,2017-03-04T20:30:00Z,30.6671,-87.9365,1.116,0.18,1111122 
DISL,ioos:station:DISL:MHPA:1,2017-03-04T21:00:00Z,30.6671,-87.9365,1.142,0.18,1111122 
DISL,ioos:station:DISL:MHPA:1,2017-03-04T21:30:00Z,30.6671,-87.9365,1.168,0.18,1111122 
DISL,ioos:station:DISL:MHPA:1,2017-03-04T22:00:00Z,30.6671,-87.9365,1.177,0.18,1111122 
DISL,ioos:station:DISL:MHPA:1,2017-03-04T22:30:00Z,30.6671,-87.9365,1.175,0.18,1111122 
DISL,ioos:station:DISL:MHPA:1,2017-03-04T23:00:00Z,30.6671,-87.9365,1.156,0.18,1111122 
DISL,ioos:station:DISL:MHPA:1,2017-03-04T23:30:00Z,30.6671,-87.9365,1.132,0.18,1111122 
DISL,ioos:station:DISL:MHPA:1,2017-03-05T00:00:00Z,30.6671,-87.9365,1.152,0.18,1111122 
DISL,ioos:station:DISL:MHPA:1,2017-03-05T00:30:00Z,30.6671,-87.9365,1.149,0.18,1111122 
DISL,ioos:station:DISL:MHPA:1,2017-03-05T01:00:00Z,30.6671,-87.9365,1.147,0.18,1111122 
DISL,ioos:station:DISL:MHPA:1,2017-03-05T01:30:00Z,30.6671,-87.9365,1.115,0.18,1111122 
DISL,ioos:station:DISL:MHPA:1,2017-03-05T02:00:00Z,30.6671,-87.9365,1.079,0.18,1111122 
DISL,ioos:station:DISL:MHPA:1,2017-03-05T02:30:00Z,30.6671,-87.9365,1.041,0.17,1111122 
DISL,ioos:station:DISL:MHPA:1,2017-03-05T03:00:00Z,30.6671,-87.9365,1.002,0.18,1111122 
DISL,ioos:station:DISL:MHPA:1,2017-03-05T03:30:00Z,30.6671,-87.9365,0.959,0.18,1111122 
DISL,ioos:station:DISL:MHPA:1,2017-03-05T04:00:00Z,30.6671,-87.9365,0.92,0.18,1111122 
DISL,ioos:station:DISL:MHPA:1,2017-03-05T04:30:00Z,30.6671,-87.9365,0.89,0.17,1111122 
DISL,ioos:station:DISL:MHPA:1,2017-03-05T05:00:00Z,30.6671,-87.9365,0.86,0.18,1111122 
DISL,ioos:station:DISL:MHPA:1,2017-03-05T05:30:00Z,30.6671,-87.9365,0.831,0.18,1111122 
DISL,ioos:station:DISL:MHPA:1,2017-03-05T06:00:00Z,30.6671,-87.9365,0.81,0.18,1111122 
DISL,ioos:station:DISL:MHPA:1,2017-03-05T06:30:00Z,30.6671,-87.9365,0.784,0.18,1111122 
DISL,ioos:station:DISL:MHPA:1,2017-03-05T07:00:00Z,30.6671,-87.9365,0.764,0.18,1111122 
DISL,ioos:station:DISL:MHPA:1,2017-03-05T07:30:00Z,30.6671,-87.9365,0.744,0.18,1111122 
DISL,ioos:station:DISL:MHPA:1,2017-03-05T08:00:00Z,30.6671,-87.9365,0.725,0.18,1111122 
DISL,ioos:station:DISL:MHPA:1,2017-03-05T08:30:00Z,30.6671,-87.9365,0.706,0.18,1111122 
DISL,ioos:station:DISL:MHPA:1,2017-03-05T09:00:00Z,30.6671,-87.9365,0.689,0.18,1111122 
DISL,ioos:station:DISL:MHPA:1,2017-03-05T09:30:00Z,30.6671,-87.9365,0.674,0.18,1111122 
DISL,ioos:station:DISL:MHPA:1,2017-03-05T10:00:00Z,30.6671,-87.9365,0.667,0.17,1111122 
DISL,ioos:station:DISL:MHPA:1,2017-03-05T10:30:00Z,30.6671,-87.9365,0.669,0.17,1111122 
DISL,ioos:station:DISL:MHPA:1,2017-03-05T11:00:00Z,30.6671,-87.9365,0.672,0.17,1111122 
DISL,ioos:station:DISL:MHPA:1,2017-03-05T11:30:00Z,30.6671,-87.9365,0.677,0.17,1111122 
DISL,ioos:station:DISL:MHPA:1,2017-03-05T12:00:00Z,30.6671,-87.9365,0.689,0.17,1111122 
DISL,ioos:station:DISL:MHPA:1,2017-03-05T12:30:00Z,30.6671,-87.9365,0.714,0.17,1111122 
DISL,ioos:station:DISL:MHPA:1,2017-03-05T13:00:00Z,30.6671,-87.9365,0.756,0.17,1111122 
DISL,ioos:station:DISL:MHPA:1,2017-03-05T13:30:00Z,30.6671,-87.9365,0.796,0.17,1111122 
DISL,ioos:station:DISL:MHPA:1,2017-03-05T14:00:00Z,30.6671,-87.9365,0.845,0.17,1111122 
DISL,ioos:station:DISL:MHPA:1,2017-03-05T14:30:00Z,30.6671,-87.9365,0.893,0.17,1111122 
DISL,ioos:station:DISL:MHPA:1,2017-03-05T15:00:00Z,30.6671,-87.9365,0.937,0.18,1111122 
DISL,ioos:station:DISL:MHPA:1,2017-03-05T15:30:00Z,30.6671,-87.9365,0.984,0.18,1111122 
DISL,ioos:station:DISL:MHPA:1,2017-03-05T16:00:00Z,30.6671,-87.9365,1.036,0.18,1111122 
DISL,ioos:station:DISL:MHPA:1,2017-03-05T16:30:00Z,30.6671,-87.9365,1.082,0.18,1111122 
DISL,ioos:station:DISL:MHPA:1,2017-03-05T17:00:00Z,30.6671,-87.9365,1.161,0.18,1111122 
DISL,ioos:station:DISL:MHPA:1,2017-03-05T17:30:00Z,30.6671,-87.9365,1.189,0.18,1111122 
DISL,ioos:station:DISL:MHPA:1,2017-03-05T18:00:00Z,30.6671,-87.9365,1.207,0.18,1111122 
DISL,ioos:station:DISL:MHPA:1,2017-03-05T18:30:00Z,30.6671,-87.9365,1.217,0.18,1111122 
DISL,ioos:station:DISL:MHPA:1,2017-03-05T19:00:00Z,30.6671,-87.9365,1.246,0.18,1111122 
DISL,ioos:station:DISL:MHPA:1,2017-03-05T19:30:00Z,30.6671,-87.9365,1.3,0.18,1111122 
DISL,ioos:station:DISL:MHPA:1,2017-03-05T20:00:00Z,30.6671,-87.9365,1.337,0.18,1111122 
DISL,ioos:station:DISL:MHPA:1,2017-03-05T20:30:00Z,30.6671,-87.9365,1.392,0.17,1111122 
DISL,ioos:station:DISL:MHPA:1,2017-03-05T21:00:00Z,30.6671,-87.9365,1.389,0.17,1111122 
DISL,ioos:station:DISL:MHPA:1,2017-03-05T21:30:00Z,30.6671,-87.9365,1.411,0.17,1111122 
DISL,ioos:station:DISL:MHPA:1,2017-03-05T22:00:00Z,30.6671,-87.9365,1.417,0.18,1111122 
DISL,ioos:station:DISL:MHPA:1,2017-03-05T22:30:00Z,30.6671,-87.9365,1.429,0.16,1111122 
DISL,ioos:station:DISL:MHPA:1,2017-03-05T23:00:00Z,30.6671,-87.9365,1.417,0.16,1111122 
DISL,ioos:station:DISL:MHPA:1,2017-03-05T23:30:00Z,30.6671,-87.9365,1.386,0.15,1111122 
DISL,ioos:station:DISL:MHPA:1,2017-03-06T00:00:00Z,30.6671,-87.9365,1.381,0.16,1111122 
DISL,ioos:station:DISL:MHPA:1,2017-03-06T00:30:00Z,30.6671,-87.9365,1.359,0.17,1111122 
DISL,ioos:station:DISL:MHPA:1,2017-03-06T01:00:00Z,30.6671,-87.9365,1.351,0.17,1111122 
DISL,ioos:station:DISL:MHPA:1,2017-03-06T01:30:00Z,30.6671,-87.9365,1.349,0.16,1111122 
DISL,ioos:station:DISL:MHPA:1,2017-03-06T02:00:00Z,30.6671,-87.9365,1.347,0.16,1111122 
DISL,ioos:station:DISL:MHPA:1,2017-03-06T02:30:00Z,30.6671,-87.9365,1.34,0.16,1111122 
DISL,ioos:station:DISL:MHPA:1,2017-03-06T03:00:00Z,30.6671,-87.9365,1.316,0.16,1111122 
DISL,ioos:station:DISL:MHPA:1,2017-03-06T03:30:00Z,30.6671,-87.9365,1.316,0.16,1111122 
DISL,ioos:station:DISL:MHPA:1,2017-03-06T04:00:00Z,30.6671,-87.9365,1.307,0.16,1111122 
DISL,ioos:station:DISL:MHPA:1,2017-03-06T04:30:00Z,30.6671,-87.9365,1.266,0.17,1111122 
DISL,ioos:station:DISL:MHPA:1,2017-03-06T05:00:00Z,30.6671,-87.9365,1.236,0.17,1111122 
DISL,ioos:station:DISL:MHPA:1,2017-03-06T05:30:00Z,30.6671,-87.9365,1.196,0.17,1111122 
DISL,ioos:station:DISL:MHPA:1,2017-03-06T06:00:00Z,30.6671,-87.9365,1.152,0.17,1111122 
DISL,ioos:station:DISL:MHPA:1,2017-03-06T06:30:00Z,30.6671,-87.9365,1.121,0.17,1111122 
DISL,ioos:station:DISL:MHPA:1,2017-03-06T07:00:00Z,30.6671,-87.9365,1.108,0.17,1111122 
DISL,ioos:station:DISL:MHPA:1,2017-03-06T07:30:00Z,30.6671,-87.9365,1.092,0.17,1111122 
DISL,ioos:station:DISL:MHPA:1,2017-03-06T08:00:00Z,30.6671,-87.9365,1.08,0.17,1111122 
DISL,ioos:station:DISL:MHPA:1,2017-03-06T08:30:00Z,30.6671,-87.9365,1.072,0.17,1111122 
DISL,ioos:station:DISL:MHPA:1,2017-03-06T09:00:00Z,30.6671,-87.9365,1.041,0.17,1111122 
DISL,ioos:station:DISL:MHPA:1,2017-03-06T09:30:00Z,30.6671,-87.9365,1.02,0.17,1111122 
DISL,ioos:station:DISL:MHPA:1,2017-03-06T10:00:00Z,30.6671,-87.9365,1.0,0.17,1111122 
DISL,ioos:station:DISL:MHPA:1,2017-03-06T10:30:00Z,30.6671,-87.9365,0.98,0.17,1111122 
DISL,ioos:station:DISL:MHPA:1,2017-03-06T11:00:00Z,30.6671,-87.9365,0.966,0.17,1111122 
DISL,ioos:station:DISL:MHPA:1,2017-03-06T11:30:00Z,30.6671,-87.9365,0.965,0.17,1111122 
DISL,ioos:station:DISL:MHPA:1,2017-03-06T12:00:00Z,30.6671,-87.9365,0.969,0.17,1111122 
DISL,ioos:station:DISL:MHPA:1,2017-03-06T12:30:00Z,30.6671,-87.9365,0.975,0.17,1111122 
DISL,ioos:station:DISL:MHPA:1,2017-03-06T13:00:00Z,30.6671,-87.9365,0.987,0.17,1111122 
DISL,ioos:station:DISL:MHPA:1,2017-03-06T13:30:00Z,30.6671,-87.9365,1.011,0.17,1111122 
DISL,ioos:station:DISL:MHPA:1,2017-03-06T14:00:00Z,30.6671,-87.9365,1.067,0.17,1111122 
DISL,ioos:station:DISL:MHPA:1,2017-03-06T14:30:00Z,30.6671,-87.9365,1.117,0.17,1111122 
DISL,ioos:station:DISL:MHPA:1,2017-03-06T15:00:00Z,30.6671,-87.9365,1.158,0.17,1111122 
DISL,ioos:station:DISL:MHPA:1,2017-03-06T15:30:00Z,30.6671,-87.9365,1.203,0.17,1111122 
DISL,ioos:station:DISL:MHPA:1,2017-03-06T16:00:00Z,30.6671,-87.9365,1.255,0.18,1111122 
DISL,ioos:station:DISL:MHPA:1,2017-03-06T16:30:00Z,30.6671,-87.9365,1.302,0.18,1111122 
DISL,ioos:station:DISL:MHPA:1,2017-03-06T17:00:00Z,30.6671,-87.9365,1.327,0.18,1111122 
DISL,ioos:station:DISL:MHPA:1,2017-03-06T17:30:00Z,30.6671,-87.9365,1.347,0.18,1111122 
DISL,ioos:station:DISL:MHPA:1,2017-03-06T18:00:00Z,30.6671,-87.9365,1.37,0.2,1111122 
DISL,ioos:station:DISL:MHPA:1,2017-03-06T18:30:00Z,30.6671,-87.9365,1.399,0.21,1111122 
DISL,ioos:station:DISL:MHPA:1,2017-03-06T19:00:00Z,30.6671,-87.9365,1.442,0.24,1111122 